Time,TemperatureF,DewpointF,PressureIn,WindDirection,WindDirectionDegrees,WindSpeedMPH,WindSpeedGustMPH,Humidity,HourlyPrecipIn,Conditions,Clouds,dailyrainin,SoftwareType,DateUTC
2013-08-10 00:08:00,71.8,71.2,29.94,North,0,0.0,-999.0,98,-99.99,,,0.00,Acu-Link.com,2013-08-10 04:08:00,
2013-08-10 00:24:00,71.6,71.0,29.93,North,0,0.0,-999.0,98,-99.99,,,0.00,Acu-Link.com,2013-08-10 04:24:00,
2013-08-10 00:39:00,71.6,71.0,29.93,North,0,0.0,-999.0,98,-99.99,,,0.00,Acu-Link.com,2013-08-10 04:39:00,
2013-08-10 00:54:00,71.6,71.0,29.93,North,0,0.0,-999.0,98,-99.99,,,0.00,Acu-Link.com,2013-08-10 04:54:00,
2013-08-10 01:09:00,71.6,71.0,29.93,North,0,0.0,-999.0,98,-99.99,,,0.00,Acu-Link.com,2013-08-10 05:09:00,
2013-08-10 01:25:00,71.6,71.0,29.93,North,0,0.0,-999.0,98,-99.99,,,0.00,Acu-Link.com,2013-08-10 05:25:00,
2013-08-10 01:40:00,71.4,70.8,29.93,North,0,0.0,-999.0,98,-99.99,,,0.00,Acu-Link.com,2013-08-10 05:40:00,
2013-08-10 01:55:00,71.4,70.8,29.93,North,0,0.0,-999.0,98,-99.99,,,0.00,Acu-Link.com,2013-08-10 05:55:00,
2013-08-10 02:10:00,71.2,70.6,29.93,North,0,0.0,-999.0,98,-99.99,,,0.00,Acu-Link.com,2013-08-10 06:10:00,
2013-08-10 02:25:00,71.2,70.6,29.93,North,0,0.0,-999.0,98,-99.99,,,0.00,Acu-Link.com,2013-08-10 06:25:00,
2013-08-10 02:41:00,71.2,70.6,29.93,North,0,0.0,-999.0,98,-99.99,,,0.00,Acu-Link.com,2013-08-10 06:41:00,
2013-08-10 02:56:00,71.2,70.6,29.92,North,0,0.0,-999.0,98,-99.99,,,0.00,Acu-Link.com,2013-08-10 06:56:00,
2013-08-10 03:11:00,71.1,70.5,29.92,North,0,0.0,-999.0,98,-99.99,,,0.00,Acu-Link.com,2013-08-10 07:11:00,
2013-08-10 03:26:00,70.9,70.3,29.92,North,0,0.0,-999.0,98,-99.99,,,0.00,Acu-Link.com,2013-08-10 07:26:00,
2013-08-10 03:41:00,70.9,70.3,29.92,North,0,0.0,-999.0,98,-99.99,,,0.00,Acu-Link.com,2013-08-10 07:41:00,
2013-08-10 03:57:00,70.7,70.1,29.93,North,0,0.0,-999.0,98,-99.99,,,0.00,Acu-Link.com,2013-08-10 07:57:00,
2013-08-10 04:12:00,70.5,69.9,29.93,North,0,0.0,-999.0,98,-99.99,,,0.00,Acu-Link.com,2013-08-10 08:12:00,
2013-08-10 04:27:00,70.5,69.9,29.92,North,0,0.0,-999.0,98,-99.99,,,0.00,Acu-Link.com,2013-08-10 08:27:00,
2013-08-10 04:42:00,70.5,69.9,29.92,North,0,0.0,-999.0,98,-99.99,,,0.00,Acu-Link.com,2013-08-10 08:42:00,
2013-08-10 04:58:00,70.5,69.9,29.93,North,0,0.0,-999.0,98,-99.99,,,0.00,Acu-Link.com,2013-08-10 08:58:00,
2013-08-10 05:13:00,70.3,69.7,29.92,North,0,0.0,-999.0,98,-99.99,,,0.00,Acu-Link.com,2013-08-10 09:13:00,
2013-08-10 05:28:00,70.3,69.7,29.92,North,0,0.0,-999.0,98,-99.99,,,0.00,Acu-Link.com,2013-08-10 09:28:00,
2013-08-10 05:43:00,70.3,69.7,29.91,North,0,0.0,-999.0,98,-99.99,,,0.00,Acu-Link.com,2013-08-10 09:43:00,
2013-08-10 05:58:00,70.2,69.6,29.92,North,0,0.0,-999.0,98,-99.99,,,0.00,Acu-Link.com,2013-08-10 09:58:00,
2013-08-10 06:14:00,69.8,69.2,29.92,North,0,0.0,-999.0,98,-99.99,,,0.00,Acu-Link.com,2013-08-10 10:14:00,
2013-08-10 06:29:00,69.6,69.0,29.94,North,0,0.0,-999.0,98,-99.99,,,0.00,Acu-Link.com,2013-08-10 10:29:00,
2013-08-10 06:44:00,69.4,68.8,29.94,North,0,0.0,-999.0,98,-99.99,,,0.00,Acu-Link.com,2013-08-10 10:44:00,
2013-08-10 06:59:00,69.4,68.8,29.94,North,0,0.0,-999.0,98,-99.99,,,0.00,Acu-Link.com,2013-08-10 10:59:00,
2013-08-10 07:15:00,69.3,68.7,29.94,North,0,0.0,-999.0,98,-99.99,,,0.00,Acu-Link.com,2013-08-10 11:15:00,
2013-08-10 07:30:00,69.3,68.7,29.94,North,0,0.0,-999.0,98,-99.99,,,0.00,Acu-Link.com,2013-08-10 11:30:00,
2013-08-10 07:45:00,69.3,68.7,29.95,North,0,0.0,-999.0,98,-99.99,,,0.00,Acu-Link.com,2013-08-10 11:45:00,
2013-08-10 08:00:00,69.4,68.8,29.95,North,0,0.0,-999.0,98,-99.99,,,0.00,Acu-Link.com,2013-08-10 12:00:00,
2013-08-10 08:15:00,69.6,69.0,29.96,North,0,0.0,-999.0,98,-99.99,,,0.00,Acu-Link.com,2013-08-10 12:15:00,
2013-08-10 08:31:00,69.8,69.2,29.96,North,0,0.0,-999.0,98,-99.99,,,0.00,Acu-Link.com,2013-08-10 12:31:00,
2013-08-10 08:46:00,70.3,69.7,29.96,North,0,0.0,-999.0,98,-99.99,,,0.00,Acu-Link.com,2013-08-10 12:46:00,
2013-08-10 09:01:00,70.9,70.3,29.96,North,0,0.0,-999.0,98,-99.99,,,0.00,Acu-Link.com,2013-08-10 13:01:00,
2013-08-10 09:17:00,72.0,71.4,29.96,North,0,0.0,-999.0,98,-99.99,,,0.00,Acu-Link.com,2013-08-10 13:17:00,
2013-08-10 09:32:00,72.5,71.9,29.96,North,0,0.0,-999.0,98,-99.99,,,0.00,Acu-Link.com,2013-08-10 13:32:00,
2013-08-10 09:47:00,73.8,73.2,29.95,North,0,0.0,-999.0,98,-99.99,,,0.00,Acu-Link.com,2013-08-10 13:47:00,
2013-08-10 10:03:00,74.5,73.9,29.96,North,0,0.0,-999.0,98,-99.99,,,0.00,Acu-Link.com,2013-08-10 14:03:00,
2013-08-10 10:18:00,75.4,74.8,29.96,North,0,0.0,-999.0,98,-99.99,,,0.00,Acu-Link.com,2013-08-10 14:18:00,
2013-08-10 10:33:00,76.1,75.5,29.95,North,0,0.0,-999.0,98,-99.99,,,0.00,Acu-Link.com,2013-08-10 14:33:00,
2013-08-10 10:48:00,76.8,76.2,29.95,North,0,0.0,-999.0,98,-99.99,,,0.00,Acu-Link.com,2013-08-10 14:48:00,
2013-08-10 11:03:00,77.4,76.8,29.97,North,0,0.0,-999.0,98,-99.99,,,0.00,Acu-Link.com,2013-08-10 15:03:00,
2013-08-10 11:19:00,77.9,77.3,29.95,North,0,0.0,-999.0,98,-99.99,,,0.00,Acu-Link.com,2013-08-10 15:19:00,
2013-08-10 11:34:00,78.6,78.0,29.96,North,0,1.7,-999.0,98,-99.99,,,0.00,Acu-Link.com,2013-08-10 15:34:00,
2013-08-10 11:49:00,79.2,78.6,29.96,North,0,0.0,-999.0,98,-99.99,,,0.00,Acu-Link.com,2013-08-10 15:49:00,
2013-08-10 12:04:00,78.1,77.5,29.97,ESE,112,1.1,-999.0,98,-99.99,,,0.00,Acu-Link.com,2013-08-10 16:04:00,
2013-08-10 12:19:00,75.0,74.4,30.00,SSE,157,0.0,-999.0,98,-99.99,,,0.17,Acu-Link.com,2013-08-10 16:19:00,
2013-08-10 12:35:00,72.7,72.1,29.99,SE,135,1.7,-999.0,98,-99.99,,,0.48,Acu-Link.com,2013-08-10 16:35:00,
2013-08-10 12:50:00,72.3,71.7,29.98,SE,135,0.0,-999.0,98,-99.99,,,0.50,Acu-Link.com,2013-08-10 16:50:00,
2013-08-10 13:05:00,73.4,72.8,29.98,SE,135,0.0,-999.0,98,-99.99,,,0.50,Acu-Link.com,2013-08-10 17:05:00,
2013-08-10 13:20:00,74.5,73.9,29.97,SE,135,0.0,-999.0,98,-99.99,,,0.50,Acu-Link.com,2013-08-10 17:20:00,
2013-08-10 13:35:00,75.7,75.1,29.96,SE,135,0.0,-999.0,98,-99.99,,,0.50,Acu-Link.com,2013-08-10 17:35:00,
2013-08-10 13:51:00,76.5,75.9,29.96,SE,135,0.0,-999.0,98,-99.99,,,0.50,Acu-Link.com,2013-08-10 17:51:00,
2013-08-10 14:06:00,79.3,78.7,29.95,ESE,112,0.0,-999.0,98,-99.99,,,0.50,Acu-Link.com,2013-08-10 18:06:00,
2013-08-10 14:21:00,79.3,78.7,29.95,ESE,112,0.0,-999.0,98,-99.99,,,0.50,Acu-Link.com,2013-08-10 18:21:00,
2013-08-10 14:36:00,79.3,78.7,29.95,ESE,112,0.0,-999.0,98,-99.99,,,0.50,Acu-Link.com,2013-08-10 18:36:00,
2013-08-10 14:51:00,79.9,79.3,29.94,ESE,112,0.0,-999.0,98,-99.99,,,0.50,Acu-Link.com,2013-08-10 18:51:00,
2013-08-10 15:07:00,80.1,79.5,29.93,ESE,112,0.0,-999.0,98,-99.99,,,0.50,Acu-Link.com,2013-08-10 19:07:00,
2013-08-10 15:22:00,81.3,79.7,29.93,ESE,112,0.0,-999.0,95,-99.99,,,0.50,Acu-Link.com,2013-08-10 19:22:00,
2013-08-10 15:37:00,80.8,80.2,29.91,ESE,112,0.0,-999.0,98,-99.99,,,0.50,Acu-Link.com,2013-08-10 19:37:00,
2013-08-10 15:52:00,80.6,80.0,29.91,ESE,112,0.0,-999.0,98,-99.99,,,0.50,Acu-Link.com,2013-08-10 19:52:00,
2013-08-10 16:08:00,79.3,78.7,29.91,ESE,112,0.0,-999.0,98,-99.99,,,0.50,Acu-Link.com,2013-08-10 20:08:00,
2013-08-10 16:23:00,78.4,77.8,29.90,ESE,112,0.0,-999.0,98,-99.99,,,0.50,Acu-Link.com,2013-08-10 20:23:00,
2013-08-10 16:38:00,78.6,78.0,29.90,ESE,112,0.0,-999.0,98,-99.99,,,0.50,Acu-Link.com,2013-08-10 20:38:00,
2013-08-10 16:53:00,78.1,77.5,29.91,ESE,112,0.0,-999.0,98,-99.99,,,0.50,Acu-Link.com,2013-08-10 20:53:00,
2013-08-10 17:09:00,77.7,77.1,29.89,ESE,112,1.1,-999.0,98,-99.99,,,0.52,Acu-Link.com,2013-08-10 21:09:00,
2013-08-10 17:24:00,75.7,75.1,29.91,SE,135,4.7,-999.0,98,-99.99,,,0.52,Acu-Link.com,2013-08-10 21:24:00,
2013-08-10 17:39:00,73.0,72.4,29.91,East,90,0.0,-999.0,98,-99.99,,,0.67,Acu-Link.com,2013-08-10 21:39:00,
2013-08-10 17:55:00,72.7,72.1,29.93,East,90,0.0,-999.0,98,-99.99,,,0.67,Acu-Link.com,2013-08-10 21:55:00,
2013-08-10 18:10:00,72.7,72.1,29.96,East,90,0.0,-999.0,98,-99.99,,,0.71,Acu-Link.com,2013-08-10 22:10:00,
2013-08-10 18:25:00,72.3,71.7,29.96,East,90,1.1,-999.0,98,-99.99,,,1.12,Acu-Link.com,2013-08-10 22:25:00,
2013-08-10 18:40:00,71.1,70.5,29.99,East,90,1.7,-999.0,98,-99.99,,,1.69,Acu-Link.com,2013-08-10 22:40:00,
2013-08-10 19:10:00,69.4,68.8,29.98,NE,45,1.7,-999.0,98,-99.99,,,2.10,Acu-Link.com,2013-08-10 23:10:00,
2013-08-10 19:26:00,69.3,68.7,29.97,South,180,0.0,-999.0,98,-99.99,,,2.23,Acu-Link.com,2013-08-10 23:26:00,
2013-08-10 19:42:00,69.1,68.5,29.98,South,180,0.0,-999.0,98,-99.99,,,2.23,Acu-Link.com,2013-08-10 23:42:00,
2013-08-10 19:57:00,69.1,68.5,29.97,South,180,0.0,-999.0,98,-99.99,,,2.25,Acu-Link.com,2013-08-10 23:57:00,
2013-08-10 20:12:00,69.3,68.7,29.98,South,180,0.0,-999.0,98,-99.99,,,2.25,Acu-Link.com,2013-08-11 00:12:00,
2013-08-10 20:28:00,69.3,68.7,29.96,South,180,0.0,-999.0,98,-99.99,,,2.25,Acu-Link.com,2013-08-11 00:28:00,
2013-08-10 20:43:00,69.3,68.7,29.96,South,180,0.0,-999.0,98,-99.99,,,2.25,Acu-Link.com,2013-08-11 00:43:00,
2013-08-10 20:58:00,69.1,68.5,29.96,South,180,0.0,-999.0,98,-99.99,,,2.25,Acu-Link.com,2013-08-11 00:58:00,
2013-08-10 21:13:00,69.1,68.5,29.95,South,180,0.0,-999.0,98,-99.99,,,2.25,Acu-Link.com,2013-08-11 01:13:00,
2013-08-10 21:28:00,69.1,68.5,29.95,South,180,0.0,-999.0,98,-99.99,,,2.25,Acu-Link.com,2013-08-11 01:28:00,
2013-08-10 21:44:00,68.9,68.3,29.95,South,180,0.0,-999.0,98,-99.99,,,2.25,Acu-Link.com,2013-08-11 01:44:00,
2013-08-10 21:59:00,68.7,68.1,29.96,South,180,0.0,-999.0,98,-99.99,,,2.25,Acu-Link.com,2013-08-11 01:59:00,
2013-08-10 22:15:00,68.5,67.9,29.97,South,180,0.0,-999.0,98,-99.99,,,2.25,Acu-Link.com,2013-08-11 02:15:00,
2013-08-10 22:30:00,68.4,67.8,29.97,South,180,0.0,-999.0,98,-99.99,,,2.25,Acu-Link.com,2013-08-11 02:30:00,
2013-08-10 22:45:00,68.4,67.8,29.97,South,180,0.0,-999.0,98,-99.99,,,2.25,Acu-Link.com,2013-08-11 02:45:00,
2013-08-10 23:16:00,68.2,67.6,29.98,South,180,0.0,-999.0,98,-99.99,,,2.25,Acu-Link.com,2013-08-11 03:16:00,
2013-08-10 23:33:00,67.8,67.2,29.98,South,180,0.0,-999.0,98,-99.99,,,2.25,Acu-Link.com,2013-08-11 03:33:00,